Find Starlink 31153

NORAD ID: 59044 Int'l Des: 2024-038 Owner: SPXS Country: US Constellation: starlink operational
LEOCIRCULAR

Current View

Loading 3D Globe...

About Starlink 31153

Starlink 31153 (NORAD 59044) is a starlink constellation satellite (v2 mini) launched Feb 25, 2024 by SPXS of US. It operates in LEO, CIRCULAR orbit with a mass of 730.00 kg.

Upcoming Passes

Passes for default location (London). Set your location on the main map for personalized predictions.

Altitude History

Loading altitude history...

Two-Line Element Set

1 59044U 24038X 26265.26857100 -.00005165 00000-0 -17824-3 0 9993
2 59044 43.0010 353.2862 0000652 286.7805 73.2975 15.27595355144751
Epoch: Sep 22, 2026 • Age: 10 hours

Current Status

Altitude 485.4 km
Apogee / Perigee N/A
Velocity 7.63 km/s
Sub-Earth Point 37.27°N, 130.46°W
Launch Date Feb 25, 2024
Age 2.5 years
Type internet

Technical Details

Classification Payload
Mass 730.00 kg
Dry Mass 700.00 kg
Length 0.30 m
Span 29.00 m
Shape ? Box + pan
Manufacturer SPXS
Bus Type Starlink V2M
Phase Status In Orbit
Owner/State SPXS/US

Most Searched